Retour au catalogue

STARLINK-31937

ActifCommunicationsVLEO
NORAD 59871·PAYLOAD·🇺🇸 United States

Lancé May 24, 2024 depuis Cape Canaveral Space Force Station

Loading…

Prochains Passages (prochaines 24 heures)

TLE

FraisSource: CelesTrak SupGP

Époque: Sep 15, 2026, 03:08 UTC

1 59871C 24098P   26258.13104167 -.00007234  00000+0 -26197-3 0  2582
2 59871  42.9995 281.1793 0001232 265.6987 291.1744 15.27585032    19

Suivez STARLINK-31937 en temps réel avec AllMySat

Download on the App Store